Regional Weather Roundup
Issued by NWS

Home | Current Version | Previous Version | Graphics & Text | Print | Product List | Glossary On
Versions: 1 2 3 4 5 6 7 8 9 10 11 12 13 14 15 16 17 18 19 20 21 22 23 24 25 26 27 28 29 30 31 32 33 34 35 36 37 38 39 40 41 42 43 44 45 46 47 48 49 50
000
ASUS45 KBOU 231407
RWRCO

WEATHER ROUNDUP FOR COLORADO
NATIONAL WEATHER SERVICE DENVER/BOULDER CO
700 AM MST THU FEB 23 2017

NOTE: "FAIR" INDICATES FEW OR NO CLOUDS BELOW 12000 FEET WITH NO
SIGNIFICANT WEATHER AND/OR OBSTRUCTIONS TO VISIBILITY.

COZ001>005-013-030-031-231500-
...NORTHWEST COLORADO...

CITY           SKY/WX    TMP DP  RH WIND       PRES   REMARKS
CRAIG          LGT SNOW  26  23  88 W6        29.48S FOG     WCI  19
HAYDEN         FAIR      25  19  80 N6        29.46F WCI  18
MEEKER         LGT SNOW  25  22  88 SW15      29.50R VSB 3/4 WCI  13
MOUNT WERNER   NOT AVBL
STEAMBOAT SPGS CLOUDY    27  23  86 CALM      29.46F
WALDEN         NOT AVBL
$$

COZ006>008-011-231500-
...WEST CENTRAL VALLEYS...

CITY           SKY/WX    TMP DP  RH WIND       PRES   REMARKS
GRAND JUNCTION MOCLDY    33  20  58 W8        29.59R WCI  26
MONTROSE       FAIR      33  24  69 SW13      29.59R WCI  24
EAGLE          LGT SNOW  30  27  86 SW10      29.51R FOG     WCI  21
RIFLE          FAIR      32  21  64 W37G43    29.51S WCI  16
DELTA          MOCLDY    38  24  55 W13G18    29.57R
NUCLA          CLOUDY    30  19  64 W12       29.66R WCI  21
$$

COZ017>023-064>068-231500-
...SOUTHWEST COLORADO...

CITY           SKY/WX    TMP DP  RH WIND       PRES   REMARKS
DURANGO        MOCLDY    30  23  75 W16G26    29.65R WCI  19
CORTEZ         FLURRIES  33  28  81 SW12      29.67R WCI  24
PAGOSA SPRINGS SNOW      30  29  96 W21G33    29.60R VSB 1/2 WCI  17
TELLURIDE      LGT SNOW  22  15  71 W16G32    29.59R WCI   9
WOLF CREEK PAS HVY SNOW  14  14 100 MISG      29.48R VSB<1/4
$$

COZ009-010-012-014-032>034-037-058>063-231500-
...CENTRAL COLORADO...

CITY           SKY/WX    TMP DP  RH WIND       PRES   REMARKS
ASPEN          LGT SNOW  26  22  84 NE7       29.47R FOG     WCI  18
BUENA VISTA    CLOUDY    29  26  88 N6        29.44F WCI  23
COPPER MTN     LGT SNOW  19  14  79 MISG      29.42F
BERTHOUD PASS  LGT SNOW   9   0  66 SE14      29.44F WCI  -8
COTTONWOOD PAS LGT SNOW  27  23  86 SW5       29.44F VSB 1   WCI  21
GUNNISON       FLURRIES  28  21  75 W8        29.51R WCI  20
KREMMLING      CLOUDY    34  27  75 SW12      29.45F WCI  25
LEADVILLE      LGT SNOW  20  17  88 SW3       29.41F FOG
MONARCH PASS   CLOUDY    16  12  86 SW30G38   29.53F WCI  -4
SALIDA         FAIR      37  15  42 SW16G22   29.52F
SUNLIGHT       NOT AVBL
WILKERSON PASS CLOUDY    19   9  63 SW13G23   29.48F WCI   7
$$

COZ069>075-231500-
...SAN LUIS VALLEY/SANGRE DE CRISTO MOUNTAINS...

CITY           SKY/WX    TMP DP  RH WIND       PRES   REMARKS
ALAMOSA        FAIR      31  23  72 S24G35    29.52F WCI  17
LA VETA PASS   CLOUDY    27  19  74 N29G52    29.52F WCI  11
SAGUACHE       FAIR      32  21  64 S14G22    29.49S WCI  22
$$

COZ035-036-038>040-231500-
...NORTHERN COLORADO FRONT RANGE...

CITY           SKY/WX    TMP DP  RH WIND       PRES   REMARKS
DENVER INTL AP CLOUDY    27  23  85 SE8       29.56F WCI  19
DMNS CITY PARK   N/A     29  24  78 MISG      29.56F
AURORA         CLOUDY    26  26  99 NE9       29.56F WCI  17
FRONT RANGE AP NOT AVBL
ERIE MUNI ARPT CLOUDY    32  26  80 NE7       29.58F WCI  25
BOULDER MUN AP LGT SNOW  32  30  93 CALM      29.56F
CENTENNIAL     CLOUDY    27  23  85 SE3       29.55F
BROOMFIELD     CLOUDY    30  27  86 N5        29.56F WCI  25
FORT COLLINS   MIX PCPN  31  30  96 E10       29.59F FOG     WCI  22
LONGMONT       DRIZZLE   34  30  85 E9        29.60F WCI  27
$$

COZ041-046-047-076>085-087-088-231500-
...PIKES PEAK/PALMER DIVIDE AND SOUTHERN FOOTHILLS...

CITY           SKY/WX    TMP DP  RH WIND       PRES   REMARKS
COLO. SPRINGS  FAIR      28  20  71 N12       29.50F WCI  18
A. F. ACADEMY  PTCLDY    26  21  81 N16       29.49F WCI  14
SCHRIEVER AFB  FAIR      26  21  83 N14G22    29.50F WCI  14
ELLICOTT       FAIR     N/A N/A N/A NE12      29.51R
FALCON         FAIR      25  20  83 N13G20    29.50F WCI  13
FORT CARSON    FAIR      30  21  70 NW15G24   29.49F WCI  19
LIMON          CLOUDY    25  25 100 N8        29.57R WCI  16
MONUMENT HILL  CLOUDY    23  21  93 N3        29.54F
TRINIDAD       FAIR      41  19  41 S3        29.51F
$$

COZ042>045-048>051-090-091-231500-
...NORTHEAST COLORADO...

CITY           SKY/WX    TMP DP  RH WIND       PRES   REMARKS
GREELEY ARPT   MIX PCPN  32  30  92 E15       29.61F FOG     WCI  22
AKRON          CLOUDY    28  27  96 E18       29.60S FOG     WCI  15
BURLINGTON     CLOUDY    35  33  92 E23G30    29.56S WCI  23
WRAY           NOT AVBL
STERLING       CLOUDY    32  32 100 E12G18    29.63F FOG     WCI  23
HOLYOKE        FOG       34  32  93 NE20      29.66S VSB 1/2 WCI  22
FORT MORGAN    LGT RAIN  31  29  95 NE14      29.61F WCI  20
$$

COZ086-089-092>099-231500-
...SOUTHEAST COLORADO...

CITY           SKY/WX    TMP DP  RH WIND       PRES   REMARKS
PUEBLO         FAIR      30  19  63 N6        29.53S WCI  24
LA JUNTA       FAIR      30  20  66 NW5       29.52F WCI  25
LAMAR          FAIR      24  19  81 SW6       29.51S WCI  17
SPRINGFIELD      N/A     41  28  60 SW8       29.52F
$$



USA.gov is the U.S. government's official web portal to all federal, state and local government web resources and services.